Time,TemperatureF,DewpointF,PressureIn,WindDirection,WindDirectionDegrees,WindSpeedMPH,WindSpeedGustMPH,Humidity,HourlyPrecipIn,Conditions,Clouds,dailyrainin,SoftwareType,DateUTC
2013-07-29 01:02:00,52.0,52.0,-100.00,SSE,165,0.0,0.0,99,0.00,,,0.00,,2013-07-29 06:02:00,
2013-07-29 03:02:00,50.0,50.0,-100.00,ESE,105,0.0,1.0,99,0.00,,,0.00,,2013-07-29 08:02:00,
2013-07-29 03:12:00,50.0,50.0,-100.00,ESE,105,0.0,0.0,99,0.00,,,0.00,,2013-07-29 08:12:00,
2013-07-29 03:33:00,50.0,50.0,-100.00,SE,135,0.0,1.0,99,0.00,,,0.00,,2013-07-29 08:33:00,
2013-07-29 04:12:00,49.0,48.0,-100.00,East,90,1.0,1.0,99,0.00,,,0.00,,2013-07-29 09:12:00,
2013-07-29 05:24:00,48.0,48.0,-100.00,South,180,2.0,4.0,99,0.00,,,0.00,,2013-07-29 10:24:00,
2013-07-29 06:44:00,49.0,48.0,-100.00,East,95,1.0,2.0,99,0.00,,,0.00,,2013-07-29 11:44:00,
2013-07-29 07:14:00,50.0,50.0,-100.00,SSE,165,1.0,2.0,99,0.00,,,0.00,,2013-07-29 12:14:00,
2013-07-29 09:05:00,62.0,55.0,-100.00,South,180,6.0,9.0,79,0.00,,,0.00,,2013-07-29 14:05:00,
2013-07-29 09:12:00,62.0,55.0,-100.00,South,185,6.0,9.0,77,0.00,,,0.00,,2013-07-29 14:12:00,
2013-07-29 10:07:00,66.0,57.0,-100.00,SSE,160,3.0,8.0,72,0.00,,,0.00,,2013-07-29 15:07:00,
2013-07-29 10:14:00,67.0,55.0,-100.00,South,180,4.0,9.0,68,0.00,,,0.00,,2013-07-29 15:14:00,
2013-07-29 11:13:00,71.0,55.0,-100.00,SSE,165,4.0,9.0,59,0.00,,,0.00,,2013-07-29 16:13:00,
2013-07-29 12:07:00,73.0,55.0,-100.00,SE,125,6.0,14.0,54,0.00,,,0.00,,2013-07-29 17:07:00,
2013-07-29 13:06:00,73.0,54.0,-100.00,ESE,115,11.0,14.0,49,0.00,,,0.00,,2013-07-29 18:06:00,
2013-07-29 13:14:00,74.0,54.0,-100.00,ESE,110,4.0,14.0,47,0.00,,,0.00,,2013-07-29 18:14:00,
2013-07-29 14:03:00,75.0,54.0,-100.00,SE,140,7.0,14.0,48,0.00,,,0.00,,2013-07-29 19:03:00,
2013-07-29 14:36:00,75.0,55.0,-100.00,South,175,9.0,14.0,51,0.00,,,0.00,,2013-07-29 19:36:00,
2013-07-29 14:53:00,74.0,55.0,-100.00,ESE,105,8.0,13.0,49,0.00,,,0.00,,2013-07-29 19:53:00,
2013-07-29 15:06:00,76.0,57.0,-100.00,SSE,155,10.0,16.0,50,0.00,,,0.00,,2013-07-29 20:06:00,
2013-07-29 15:24:00,76.0,57.0,-100.00,ESE,120,7.0,13.0,50,0.00,,,0.00,,2013-07-29 20:24:00,
2013-07-29 16:05:00,76.0,57.0,-100.00,SE,140,7.0,16.0,51,0.00,,,0.00,,2013-07-29 21:05:00,
2013-07-29 16:24:00,77.0,54.0,-100.00,South,180,8.0,12.0,45,0.00,,,0.00,,2013-07-29 21:24:00,
2013-07-29 17:04:00,77.0,54.0,-100.00,SE,135,7.0,14.0,46,0.00,,,0.00,,2013-07-29 22:04:00,
2013-07-29 17:16:00,77.0,54.0,-100.00,SE,140,6.0,12.0,44,0.00,,,0.00,,2013-07-29 22:16:00,
2013-07-29 17:25:00,76.0,55.0,-100.00,SE,135,6.0,17.0,48,0.00,,,0.00,,2013-07-29 22:25:00,
2013-07-29 18:05:00,78.0,54.0,-100.00,SSE,160,6.0,12.0,42,0.00,,,0.00,,2013-07-29 23:05:00,
2013-07-29 18:26:00,76.0,54.0,-100.00,SE,135,6.0,12.0,46,0.00,,,0.00,,2013-07-29 23:26:00,
2013-07-29 19:07:00,73.0,54.0,-100.00,SE,145,7.0,13.0,50,0.00,,,0.00,,2013-07-30 00:07:00,
2013-07-29 19:34:00,73.0,54.0,-100.00,SE,140,6.0,9.0,49,0.00,,,0.00,,2013-07-30 00:34:00,
2013-07-29 20:23:00,71.0,55.0,-100.00,SE,140,6.0,11.0,56,0.00,,,0.00,,2013-07-30 01:23:00,
2013-07-29 20:36:00,71.0,55.0,-100.00,SE,145,6.0,10.0,56,0.00,,,0.00,,2013-07-30 01:36:00,
2013-07-29 21:13:00,70.0,55.0,-100.00,SE,140,6.0,9.0,58,0.00,,,0.00,,2013-07-30 02:13:00,
2013-07-29 21:24:00,70.0,55.0,-100.00,SE,125,5.0,7.0,58,0.00,,,0.00,,2013-07-30 02:24:00,
2013-07-29 21:45:00,70.0,55.0,-100.00,SE,135,7.0,11.0,58,0.00,,,0.00,,2013-07-30 02:45:00,
2013-07-29 22:08:00,70.0,55.0,-100.00,ESE,110,7.0,12.0,58,0.00,,,0.00,,2013-07-30 03:08:00,
2013-07-29 22:25:00,69.0,55.0,-100.00,ESE,115,6.0,11.0,60,0.00,,,0.00,,2013-07-30 03:25:00,
2013-07-29 22:44:00,69.0,55.0,-100.00,SE,135,4.0,8.0,63,0.00,,,0.00,,2013-07-30 03:44:00,
2013-07-29 23:03:00,69.0,57.0,-100.00,ESE,115,6.0,10.0,64,0.00,,,0.00,,2013-07-30 04:03:00,